Location: Bower School (historical)
(37.8389°N, 89.5348°W)
Time: 03:23:35
(UTC+00:00)

GEOS 3 Rocket - Pass Details

Date: 11 December 2025
Orbit: 769 x 844 km, 115.0° (Epoch: 15 January)

Event Time Altitude Azimuth Distance (km) Brightness Sun altitude
Exits shadow 23:13:08 - 29° (NNE) 3,283 6.3 -6.8°
Reaches altitude 10° 23:15:12 10° 26° (NNE) 2,467 5.7 -7.2°
Maximum altitude 23:20:28 58° 309° (NW) 976 4.2 -8.1°
Drops below altitude 10° 23:25:42 10° 231° (SW) 2,451 7.5 -9.1°
Sets 23:28:02 0° 227° (SW) 3,378 8.3 -9.5°
